Location: *
(47.6569°N, 7.4256°E)
Time: 17:29:57
(UTC+00:00)

X-37B - Visible Passes

Search period start: 25 February 2021 00:00
Search period end: 07 March 2021 00:00
Orbit: 383 x 391 km, 45.0° (Epoch: 10 February)

Date Brightness Start Highest point End Pass type
(mag) Time Alt. Az. Time Alt. Az. Time Alt. Az.
25 Feb 3.9 03:31:20 13° E 03:31:20 13° E 03:31:43 10° E visible
25 Feb 1.1 05:03:37 25° WSW 05:05:05 46° S 05:08:08 10° ESE visible
26 Feb 2.0 04:07:49 34° SE 04:07:49 34° SE 04:09:53 10° ESE visible
26 Feb 2.0 05:40:21 10° W 05:43:07 27° SSW 05:45:52 10° SE visible
27 Feb 1.3 04:44:21 34° SW 04:44:53 37° SSW 04:47:50 10° SE visible
28 Feb 3.1 03:48:38 18° ESE 03:48:38 18° ESE 03:49:40 10° ESE visible
28 Feb 2.4 05:20:56 12° WSW 05:22:50 19° SSW 05:25:09 10° SSE visible
01 Mar 2.1 04:25:18 25° S 04:25:18 25° S 04:27:23 10° SE visible
02 Mar 2.8 05:02:03 12° SW 05:02:28 12° SSW 05:03:52 10° S visible
03 Mar 3.4 04:06:36 10° SSE 04:06:36 10° SSE 04:06:40 10° SSE visible
